Wind_Speed
15 15 14 13 14 14 14 14 13 13 12 11 11 11 11 10 10 9 9 9 7 5 6 5 4 5 5 2 1 3 3 3 4 2 1 4 8 10 9 7 5 8 13 14 12 8 9 9 9 10 9 8 8 8 10 11 11 7 2 4 5 5 6 5 2 2 2 2 2 4 3 2 3 3 4 4 5 5 5 7 5 6 5 5 4 2 2 3
15 15 15 14 15 15 14 13 13 14 12 10 11 11 10 10 10 9 8 6 5 4 6 5 4 4 5 3 1 3 3 3 4 2 6 9 10 11 11 8 6 10 13 12 8 9 10 10 11 12 11 8 8 9 8 10 11 8 2 4 6 5 6 6 2 5 2 1 2 1 4 3 2 2 3 4 4 7 6 8 10 8 7 7 6 4 2 1
15 15 15 15 15 14 14 14 14 14 12 11 11 11 11 10 9 8 6 5 4 4 5 5 4 3 5 3 2 4 4 4 3 3 11 13 11 11 11 9 8 11 14 10 6 9 8 8 10 13 13 10 10 10 9 8 8 8 6 5 6 6 7 10 8 2 3 2 2 1 4 3 4 3 2 3 4 6 2 1 4 5 4 7 7 6 4 1
16 16 16 15 15 15 15 14 14 13 11 10 10 10 11 11 9 7 5 4 5 5 4 4 3 3 4 2 3 5 6 4 2 6 12 12 10 10 9 9 10 14 15 9 6 8 7 7 7 12 13 10 12 11 9 10 7 6 7 5 6 7 7 10 10 3 2 3 1 1 4 4 5 4 3 2 4 4 3 9 6 5 5 5 9 7 6 5
16 17 16 15 15 16 15 15 14 11 10 9 9 9 11 11 8 7 5 4 5 5 5 4 3 4 4 2 4 7 6 2 3 8 10 10 10 8 7 6 10 15 12 7 6 7 7 7 6 9 10 8 10 10 8 14 11 4 6 9 10 10 7 7 7 6 4 3 4 4 4 3 3 2 1 2 2 1 4 9 7 6 4 3 9 9 10 10
17 17 17 15 16 16 15 15 13 10 9 9 8 9 10 10 9 7 6 5 5 5 5 4 4 5 3 3 6 8 4 1 2 4 5 7 8 6 5 5 8 12 11 7 5 7 7 8 8 8 8 6 8 9 9 15 14 6 6 10 13 12 10 8 4 5 3 2 3 1 2 3 3 2 2 3 3 3 4 6 6 4 3 5 9 12 14 12
18 17 16 15 16 16 15 14 12 10 9 8 8 8 9 9 9 8 7 6 5 5 4 3 4 4 3 5 7 7 4 2 1 2 5 8 7 5 6 4 4 8 11 8 6 8 8 8 10 10 7 5 7 9 11 14 14 8 6 8 12 13 10 6 2 3 2 3 4 4 4 4 4 2 3 4 6 5 5 3 3 4 4 6 10 12 13 12
18 17 15 15 15 15 15 14 11 9 9 8 7 7 8 8 8 8 8 7 5 5 4 4 4 4 5 7 7 4 5 2 1 5 8 9 7 4 4 2 3 6 8 7 7 8 9 10 11 10 6 5 8 9 11 11 10 9 9 8 10 13 7 2 1 1 1 1 2 3 3 6 5 2 3 3 8 7 6 3 3 5 4 7 10 11 10 10
18 17 16 15 15 14 14 14 12 9 9 8 6 5 7 7 8 8 7 6 5 5 4 4 4 5 6 9 7 2 3 5 3 5 7 7 5 4 5 3 3 5 5 6 8 8 9 10 11 11 6 6 9 9 9 8 5 5 9 11 10 13 8 4 2 3 3 2 1 2 3 5 3 1 2 4 7 7 9 7 5 5 6 7 8 8 8 8
17 16 16 15 15 14 14 14 12 10 9 8 5 5 5 6 7 7 7 6 5 4 4 4 4 6 8 10 6 1 2 5 5 5 6 6 4 3 6 4 3 5 5 6 8 9 10 9 9 10 7 7 8 8 8 7 3 2 7 11 9 11 9 5 4 5 4 3 3 4 4 3 1 1 1 5 7 9 12 9 6 6 9 9 7 7 6 5
17 16 16 16 16 14 13 13 11 10 9 7 5 5 5 6 7 7 6 5 3 2 3 3 5 8 11 9 2 0 2 3 4 5 5 5 5 5 4 4 5 4 3 5 7 8 9 9 8 6 4 4 6 5 6 9 8 6 8 11 8 8 10 7 7 8 7 4 5 3 4 5 3 2 4 8 11 14 14 13 10 10 12 11 9 9 7 5
18 16 16 16 15 14 12 12 11 10 8 7 6 5 5 5 6 6 5 4 2 1 2 3 7 10 11 6 2 2 3 3 3 4 3 4 5 6 5 5 7 6 4 3 5 6 7 8 8 6 2 2 4 2 3 6 9 9 6 7 7 7 9 10 11 12 9 5 5 1 3 6 5 4 7 13 14 16 15 15 15 13 14 11 11 10 10 9
19 16 16 15 14 13 12 11 10 8 7 7 6 6 5 5 5 5 4 3 2 1 3 6 11 13 10 5 3 2 4 4 3 1 2 3 2 2 5 5 6 8 8 4 2 5 7 5 7 7 5 3 3 2 3 2 4 7 5 4 5 5 6 8 11 14 12 8 9 5 2 3 1 2 6 10 15 18 17 17 16 16 15 13 12 12 12 10
19 16 16 14 11 10 11 11 9 7 7 7 6 6 5 4 4 4 3 3 3 3 5 10 14 13 8 4 4 2 4 5 4 1 3 5 3 2 1 3 4 6 9 7 4 6 7 5 6 5 7 7 5 6 4 2 2 3 4 3 3 4 3 6 11 13 10 8 11 7 3 2 4 6 5 4 12 17 18 17 17 17 16 14 14 13 13 12
18 16 16 13 10 9 10 10 8 7 6 6 6 5 4 3 4 4 4 4 5 7 11 15 14 10 6 5 4 3 4 5 2 0 3 6 5 2 1 2 2 4 7 8 7 8 7 5 5 3 4 6 5 5 3 3 2 3 4 3 4 4 4 6 8 11 8 6 11 8 3 3 4 6 4 1 7 13 18 18 17 17 16 15 15 14 13 12
17 15 15 12 11 9 8 8 8 6 5 6 6 3 3 4 5 5 6 6 7 11 14 13 9 7 5 5 5 4 4 2 0 0 2 5 5 3 2 2 1 2 4 6 7 8 7 5 5 4 3 2 2 2 3 3 3 3 3 3 4 5 5 4 3 8 9 6 8 9 4 1 4 5 7 5 10 18 20 18 17 17 16 14 14 13 13 11
16 14 12 11 10 8 8 8 7 6 5 4 3 3 5 6 6 8 9 9 9 12 12 8 6 7 6 5 5 4 3 2 0 1 0 3 3 4 4 1 1 2 2 3 4 5 6 6 4 3 3 2 2 3 3 3 4 3 4 4 4 5 5 3 2 4 8 6 6 9 5 3 5 5 11 13 17 21 18 17 17 16 15 15 14 14 14 13
14 13 11 9 8 7 7 7 7 7 5 3 3 5 7 9 11 12 11 11 10 9 9 7 4 3 4 5 4 2 2 2 3 4 3 1 3 5 6 3 2 4 4 4 4 7 6 6 5 1 2 3 3 4 4 4 2 1 3 3 5 6 7 4 3 4 7 7 6 8 7 4 7 5 11 15 17 19 17 16 16 16 16 15 15 15 15 15
13 13 10 9 9 8 7 7 8 6 3 5 7 8 10 13 13 11 8 7 8 6 4 5 4 2 5 5 3 3 4 6 6 5 4 2 4 5 5 4 5 6 5 4 4 7 7 4 4 3 3 4 5 6 7 7 4 3 2 2 3 4 5 2 4 5 7 6 6 7 7 6 7 5 8 12 16 19 16 16 16 15 16 15 16 16 15 16
12 12 10 10 10 9 7 6 6 3 3 7 11 10 7 7 7 6 8 10 11 8 5 6 7 7 7 4 2 5 7 8 7 5 3 4 5 3 2 3 5 5 5 3 5 7 7 4 3 4 4 6 8 10 9 9 7 5 4 4 5 4 2 2 4 3 4 4 5 7 7 6 9 7 7 12 15 15 13 14 15 14 15 15 16 15 15 15
11 11 10 10 10 9 7 6 4 3 5 8 11 6 2 1 2 5 9 13 14 13 11 11 10 9 7 5 3 6 5 6 7 7 4 4 3 2 4 4 4 3 5 4 4 3 4 3 5 6 7 9 8 8 9 9 8 6 4 4 5 5 2 3 3 2 1 1 3 7 7 5 9 7 7 10 10 9 11 13 13 14 15 14 15 15 14 13
10 10 10 10 10 8 6 6 5 6 6 8 9 4 4 3 6 11 11 9 11 12 12 12 12 10 10 8 7 6 3 3 7 8 3 2 1 0 3 5 3 2 4 4 3 3 2 5 6 6 6 6 3 2 2 4 5 4 3 3 4 4 1 2 1 1 1 1 2 5 3 4 7 6 7 9 9 10 13 15 14 15 15 14 14 14 13 13
9 9 9 9 8 6 5 5 6 7 5 5 5 3 3 9 14 15 12 8 7 9 9 10 11 10 9 8 7 6 3 3 7 9 5 2 1 2 0 2 4 3 3 2 3 3 2 2 3 4 4 2 2 3 4 4 3 2 3 3 4 4 3 2 1 1 2 1 0 4 2 4 5 5 6 8 11 13 15 17 16 16 16 15 14 13 13 14
8 8 8 8 7 5 5 5 6 8 6 4 2 2 9 15 18 16 9 6 5 5 7 10 11 11 9 6 7 8 9 8 8 9 8 5 4 2 2 2 3 3 2 3 5 4 2 2 5 5 5 4 3 3 3 2 2 3 5 4 5 5 2 1 2 2 4 3 1 2 3 2 5 5 4 6 10 12 13 15 16 16 15 15 14 15 15 15
7 8 7 7 6 5 4 5 6 7 7 6 4 7 13 16 16 12 4 3 4 3 3 5 7 9 9 6 6 6 7 9 9 8 8 7 5 2 2 3 2 1 2 4 4 5 3 4 5 4 4 4 3 3 3 2 3 3 4 4 6 8 1 5 4 2 2 3 2 3 2 3 5 6 5 5 7 8 10 12 13 14 14 14 15 15 14 15
6 7 7 7 5 4 4 4 5 4 5 5 5 7 12 15 13 6 1 1 3 2 1 3 3 4 6 6 6 2 3 5 7 8 8 6 4 3 4 1 2 1 2 2 2 1 2 4 3 3 3 4 1 2 3 1 3 2 2 5 4 6 5 7 5 1 1 3 2 6 5 3 2 4 4 5 5 6 8 8 10 13 13 14 15 15 15 15
6 6 6 6 4 4 3 2 2 1 2 3 3 6 11 14 12 3 1 2 1 1 1 3 4 4 5 7 8 2 2 2 3 8 10 6 4 2 2 2 1 1 2 2 2 0 3 5 4 3 1 0 0 1 5 6 3 1 4 7 7 4 0 3 4 3 2 2 2 4 5 4 3 2 3 6 6 5 6 6 8 12 14 15 15 14 15 15
5 5 5 5 3 3 3 2 0 1 2 2 3 4 9 11 9 3 1 2 1 1 3 3 4 6 6 7 12 6 4 4 1 7 12 8 7 2 1 4 4 2 3 2 1 0 3 5 5 4 1 1 1 1 4 7 2 1 6 7 5 4 4 4 1 2 3 3 3 5 5 4 3 2 3 5 5 4 5 6 7 10 13 14 15 14 14 15
5 4 4 4 2 1 2 2 1 1 1 2 3 3 7 7 5 1 1 2 0 2 3 2 2 4 4 5 14 12 7 7 4 6 9 8 9 5 0 4 6 4 3 1 2 1 2 4 5 4 3 1 2 4 4 4 1 1 6 7 4 2 2 3 1 2 3 4 6 7 6 3 3 1 2 3 1 3 5 6 6 11 14 13 14 14 14 14
6 4 4 3 1 1 2 1 1 1 0 1 3 4 8 7 3 0 2 2 2 2 2 4 1 5 6 0 7 11 8 7 8 8 8 8 10 10 4 3 6 4 1 2 3 2 1 3 5 5 4 4 4 5 3 1 2 2 3 4 3 3 1 1 1 1 2 6 9 7 7 5 3 1 2 2 4 3 5 7 7 11 13 13 14 14 14 14
6 5 4 2 1 1 2 1 1 1 1 1 3 6 8 4 1 2 2 1 2 1 1 4 3 4 5 3 2 7 6 5 9 8 7 8 10 13 8 4 6 3 2 1 2 2 2 3 3 4 8 8 4 4 1 2 1 1 1 1 2 2 2 0 1 2 3 7 7 6 8 7 5 1 4 4 7 8 6 8 7 10 12 12 13 13 14 14
5 4 3 2 1 1 2 2 2 1 2 3 5 7 4 1 1 1 0 1 0 2 1 2 4 3 3 4 3 5 3 3 7 6 4 4 5 9 8 4 5 1 2 0 2 3 3 3 3 2 9 12 6 3 1 1 1 1 2 1 1 1 1 1 2 3 5 6 2 4 9 6 3 2 6 7 8 9 9 10 10 11 12 12 12 13 14 14
4 3 2 2 1 0 1 2 2 1 2 5 6 4 1 1 1 1 2 2 1 1 2 2 2 3 1 2 3 3 2 2 5 4 2 4 5 6 8 8 6 1 1 2 1 1 1 2 5 3 4 11 8 2 2 2 2 1 1 1 2 2 1 3 4 2 4 4 1 3 7 4 1 4 6 7 8 10 12 14 14 14 14 13 13 13 13 14
4 3 3 2 1 1 0 1 1 1 5 7 4 1 1 1 1 0 1 2 1 1 2 1 1 3 4 2 0 2 1 1 4 5 3 3 4 3 5 9 10 4 2 2 1 1 1 1 4 4 3 7 6 4 2 2 3 3 1 1 0 1 1 2 2 1 1 2 1 3 3 2 0 2 4 7 10 11 13 14 14 15 14 13 13 13 13 14
3 3 4 4 2 1 1 1 2 3 6 4 2 1 1 1 1 1 1 1 0 2 2 0 2 1 3 2 0 2 2 1 2 5 5 4 4 3 3 6 9 7 2 1 2 2 1 2 1 2 3 6 5 3 4 3 3 3 2 0 1 2 1 2 1 1 1 2 2 2 1 2 2 4 4 7 9 10 11 12 13 13 12 12 13 13 13 13
3 4 7 7 5 3 2 2 2 3 4 1 2 1 1 1 1 2 1 0 1 0 3 2 1 0 2 2 1 1 3 2 2 3 4 3 4 4 3 4 7 7 4 2 2 1 1 2 1 0 3 6 5 3 5 5 1 2 3 1 2 1 1 2 4 2 1 1 2 3 2 2 3 3 4 6 7 7 8 10 11 11 11 12 12 12 12 12
3 4 7 9 7 4 3 3 2 4 2 1 1 1 1 1 2 2 2 1 1 1 2 2 0 0 2 2 2 2 4 3 1 1 1 2 2 4 4 4 6 6 5 3 1 1 1 0 2 1 2 5 6 3 4 10 7 1 1 3 3 1 1 1 3 0 1 4 3 4 5 3 3 1 1 3 5 6 7 8 9 10 11 12 11 11 11 11
4 4 5 9 7 4 2 2 3 3 1 1 4 3 1 1 3 4 4 3 1 1 2 1 0 0 0 2 2 3 5 2 1 1 2 2 1 5 3 3 5 8 10 8 2 1 2 0 1 3 1 3 7 3 1 9 13 5 1 4 3 1 1 0 1 1 3 5 3 4 6 2 1 1 1 4 7 7 6 6 7 9 10 11 10 10 10 10
5 4 3 6 6 5 4 4 4 2 1 1 4 3 1 2 4 6 5 4 2 2 2 1 2 1 2 1 2 1 4 3 2 2 2 1 1 4 5 4 5 10 15 11 3 2 3 1 1 3 4 1 4 4 1 5 9 7 5 4 3 1 1 1 1 1 1 3 3 4 5 0 3 2 2 3 8 7 6 6 5 8 10 9 9 9 8 8
5 3 1 4 5 5 6 7 7 6 2 1 3 2 2 3 4 7 8 5 2 3 2 2 2 2 2 2 2 2 3 3 3 2 2 2 1 2 6 5 5 10 14 9 3 3 3 1 1 3 5 2 2 4 3 3 5 5 5 4 4 3 1 1 1 0 0 2 3 3 3 0 1 3 4 3 9 6 6 6 6 9 10 9 9 8 7 8
4 1 1 4 3 5 7 8 8 6 3 3 3 2 3 4 5 7 10 8 5 5 5 4 3 3 3 2 2 2 2 3 3 3 2 2 2 2 4 6 6 7 8 5 3 4 3 2 1 3 4 3 3 2 3 4 4 3 3 3 4 3 2 2 2 1 3 2 1 1 3 1 1 3 4 3 6 6 8 10 8 9 10 9 8 7 7 7
2 1 2 4 1 4 7 7 6 4 3 2 3 4 4 5 5 5 8 9 6 5 6 5 4 5 3 3 4 3 3 3 2 3 2 3 4 3 5 10 10 6 3 2 3 4 2 1 1 1 2 4 4 2 3 5 4 5 5 4 3 3 3 1 2 1 3 2 1 0 3 1 2 4 4 6 7 8 12 13 11 11 10 8 8 6 6 6
3 2 3 2 4 5 5 4 3 4 3 2 4 6 6 5 4 5 6 7 6 4 5 4 3 4 3 3 4 3 3 3 3 3 4 3 4 4 7 13 12 6 3 1 2 4 3 0 1 1 2 4 4 2 3 3 2 5 5 5 4 3 2 2 2 1 1 3 1 1 3 1 2 4 3 8 9 10 11 12 12 11 9 8 7 6 4 4
4 5 5 3 5 3 2 2 2 4 3 3 5 6 8 8 7 6 4 5 5 3 3 3 3 4 2 2 4 3 1 2 2 3 4 4 2 4 9 14 12 7 5 3 3 5 3 1 1 1 1 1 1 1 2 2 2 3 2 3 4 4 2 1 1 1 1 3 3 3 4 1 0 3 3 5 5 6 8 9 9 9 9 8 7 5 4 2
4 4 8 8 3 3 3 3 5 6 4 5 5 3 4 6 6 7 6 6 7 5 3 2 3 6 4 3 5 5 4 3 1 1 3 4 3 5 10 13 12 8 5 5 6 5 1 1 2 1 2 2 1 2 0 2 3 1 1 1 2 3 1 0 1 1 1 1 1 3 3 1 2 4 1 2 2 4 6 7 6 6 8 8 7 5 4 2
1 0 3 8 9 11 11 8 10 9 6 5 4 2 2 3 3 5 7 6 7 8 7 5 4 5 5 4 5 5 6 5 3 3 3 3 3 3 8 10 11 8 5 6 9 5 1 2 3 3 3 1 2 2 1 3 2 2 2 3 3 1 2 3 2 2 2 2 4 3 1 3 2 2 1 2 2 3 5 8 7 7 8 9 8 7 6 4
2 1 1 3 7 11 11 10 10 7 4 3 2 1 3 4 2 3 5 4 5 6 6 5 4 3 3 4 4 3 4 5 6 4 2 2 2 2 6 8 9 8 5 6 9 5 1 2 3 2 3 3 2 1 2 2 1 4 5 5 4 4 2 3 3 4 0 3 5 3 3 5 2 1 3 4 4 4 7 11 13 12 12 12 10 9 8 6
1 3 3 3 3 3 4 6 7 7 6 5 3 1 3 4 2 2 4 3 3 4 3 3 5 4 3 2 3 3 2 3 5 2 0 1 1 0 3 5 6 7 5 5 7 4 2 1 2 1 2 1 1 1 1 1 2 4 5 6 5 5 5 4 6 6 3 4 7 5 7 10 7 6 7 7 8 9 11 15 17 15 13 12 10 8 7 6
6 6 6 6 5 4 5 8 11 9 7 5 3 2 3 4 2 2 2 2 2 4 3 3 2 4 4 3 2 4 3 2 2 1 1 2 1 1 1 1 3 6 6 4 4 3 1 2 1 1 1 3 3 1 1 2 4 6 6 6 6 6 7 8 7 7 8 10 10 10 13 13 9 8 8 7 7 9 12 13 13 13 11 10 9 7 6 6
6 6 6 10 10 8 8 9 9 7 4 3 2 1 2 4 4 2 3 3 2 2 3 5 5 2 4 4 5 4 1 1 3 4 3 3 1 0 1 1 2 4 4 3 3 4 3 3 2 1 0 3 3 3 3 3 4 7 8 8 8 7 8 9 8 8 8 10 11 11 13 12 6 3 3 6 7 6 7 3 6 10 8 9 8 8 7 7
4 6 10 12 8 4 5 4 2 2 2 2 1 2 2 3 5 5 3 4 3 2 2 7 8 4 6 8 9 6 4 6 8 8 8 7 4 3 3 1 1 2 2 2 2 4 3 2 1 2 1 2 2 3 3 4 5 8 11 11 10 9 7 7 6 6 7 8 9 9 9 7 1 3 2 5 5 4 5 3 2 5 8 9 8 8 8 7
8 11 11 10 5 1 1 1 2 1 1 2 2 2 3 5 7 6 4 3 5 6 5 8 8 5 6 8 8 7 8 11 14 14 14 12 11 11 9 7 6 4 2 1 0 2 2 1 1 2 1 2 2 3 4 4 5 5 7 8 8 9 8 7 6 7 8 8 7 6 6 5 1 0 2 4 2 3 4 3 4 5 8 11 9 7 8 9
Wind_Direction
330 329 322 325 333 331 329 327 329 331 330 331 329 330 324 319 318 313 309 307 312 307 292 289 274 269 268 269 207 180 201 193 147 140 196 196 204 213 223 229 197 164 171 153 140 181 198 201 207 196 197 200 199 207 208 212 219 213 201 230 231 236 237 254 267 83 351 3 35 340 8 311 316 16 341 313 247 228 215 220 198 195 219 226 207 215 323 15
325 328 328 328 331 331 330 329 331 330 327 323 318 316 310 313 317 312 314 314 317 309 294 292 276 259 254 261 181 165 172 177 141 148 230 228 217 221 231 230 188 167 166 151 153 182 186 202 205 198 201 209 212 203 202 202 207 213 217 236 229 242 251 262 263 114 123 294 123 281 346 360 330 339 305 302 257 236 225 223 216 201 204 222 236 243 257 316
329 332 332 330 330 328 325 327 331 330 325 321 315 310 308 311 313 315 328 326 316 301 292 293 281 255 245 246 146 157 145 137 115 175 224 232 228 229 231 221 189 168 157 148 178 191 194 209 206 208 206 215 223 206 203 199 197 211 220 240 238 245 262 271 275 129 143 245 145 248 322 313 272 263 247 286 292 262 239 19 247 219 216 210 205 218 210 191
333 331 328 329 329 324 320 323 328 327 320 317 315 311 310 310 314 326 339 330 310 294 286 283 276 256 244 219 153 151 129 104 122 197 224 235 233 229 226 217 188 168 157 150 187 204 214 220 216 220 213 221 227 210 206 203 191 199 211 237 257 260 265 272 284 2 68 261 227 240 282 277 268 255 232 311 331 290 31 40 19 4 336 206 177 187 167 131
332 329 328 330 328 324 325 326 324 318 313 310 311 312 308 309 320 332 330 319 301 290 285 273 257 244 241 211 166 141 122 86 171 205 233 238 230 220 217 213 179 168 167 166 192 204 212 214 214 224 228 237 227 214 213 213 210 222 229 238 255 267 278 285 307 22 64 255 246 219 240 274 284 265 256 3 19 359 36 38 36 31 4 169 157 147 134 126
328 327 327 327 325 326 330 330 324 314 315 317 314 311 306 308 320 325 320 313 299 287 281 272 247 232 223 190 171 146 129 35 160 216 235 211 205 195 206 211 176 176 184 186 192 199 201 205 202 210 226 243 237 228 221 216 214 233 251 242 249 255 265 281 318 38 47 314 306 295 321 319 302 316 47 72 132 133 70 51 49 64 86 143 147 128 121 125
327 326 324 324 325 330 332 330 326 319 320 320 318 310 303 308 317 320 315 313 305 290 282 266 236 223 205 171 164 152 139 42 16 172 147 163 162 169 209 211 200 196 190 186 194 200 197 201 204 209 217 233 248 242 235 224 208 217 254 253 257 256 262 288 342 57 19 340 5 12 4 318 299 336 33 83 134 127 99 83 62 80 114 145 146 121 114 123
332 330 325 325 328 331 332 330 325 320 320 315 316 310 304 313 316 314 314 315 307 290 278 258 226 205 193 163 154 163 160 125 94 142 146 158 146 155 192 182 250 208 186 198 203 201 200 205 210 215 216 227 249 246 245 241 209 211 244 254 269 266 259 42 63 122 92 279 4 3 319 296 306 360 355 110 130 118 114 138 111 105 122 132 134 124 122 129
333 331 328 330 332 331 330 329 326 322 321 316 316 313 310 315 313 312 314 315 308 292 272 252 207 187 181 156 152 177 176 173 168 159 169 176 170 168 150 147 252 194 184 214 208 207 208 210 216 223 240 262 266 260 254 255 210 200 245 248 258 265 249 120 157 199 176 189 45 339 290 292 301 328 303 142 132 127 129 129 120 119 115 110 116 124 126 130
333 330 329 331 332 332 328 326 329 329 322 317 320 319 317 316 312 314 315 314 310 291 264 245 194 182 169 157 165 177 168 184 176 179 191 192 191 149 133 156 210 172 193 220 216 218 214 216 219 230 259 291 287 270 257 259 261 18 308 274 259 274 268 184 188 216 199 202 211 227 259 274 184 195 263 130 131 145 136 116 108 104 95 97 100 108 113 124
334 330 329 331 332 331 325 324 330 330 322 320 326 327 326 319 316 316 316 317 315 284 251 222 176 169 158 153 168 76 167 184 173 185 196 186 169 142 149 185 174 164 207 220 222 220 220 231 233 235 249 279 293 278 260 268 285 321 327 300 278 287 281 223 210 230 223 230 228 224 276 261 193 197 205 150 142 150 135 109 105 97 89 90 90 95 97 98
334 330 330 332 332 327 323 323 327 326 322 325 331 334 330 320 320 317 317 332 337 289 215 177 161 154 142 128 62 96 150 146 162 188 186 182 176 168 182 181 159 164 195 221 231 220 227 240 230 235 227 247 283 271 280 288 293 303 309 300 283 277 268 228 212 221 223 223 217 227 311 256 219 194 168 156 151 146 129 109 104 96 91 88 81 82 80 79
330 328 328 329 327 323 322 319 322 324 321 326 332 334 331 326 328 321 327 11 26 87 149 157 154 143 127 101 73 117 151 118 100 138 142 145 150 170 185 183 167 167 177 184 205 215 232 233 210 234 256 268 312 321 328 322 288 291 275 270 283 283 267 236 217 210 211 210 202 195 274 250 214 79 118 149 156 138 120 110 104 96 92 85 78 73 68 67
328 325 327 328 324 318 317 313 315 320 318 326 333 331 336 343 352 354 14 58 80 100 126 142 141 126 106 81 83 116 133 101 62 68 121 107 88 339 225 182 190 177 178 176 164 189 216 213 196 249 265 258 310 329 304 259 225 259 246 230 246 266 258 235 220 206 207 206 189 181 240 228 74 46 53 148 170 144 119 109 103 95 90 82 76 70 62 59
329 328 327 330 328 317 312 312 315 317 320 330 333 338 359 18 34 43 60 80 98 112 123 129 125 111 97 83 84 109 110 93 38 192 138 118 100 14 30 133 207 197 187 190 193 194 199 193 191 242 257 242 289 312 273 222 212 213 226 228 202 227 271 249 214 198 196 195 183 177 232 215 98 44 29 159 174 134 110 101 97 91 87 81 75 70 64 58
326 329 329 334 337 331 323 321 320 318 326 334 336 2 49 58 57 61 76 90 108 122 125 124 108 91 99 96 89 95 89 86 279 341 172 145 115 108 141 136 138 175 189 197 210 206 192 177 193 227 231 211 236 261 279 251 218 202 214 243 202 200 241 254 191 181 178 169 184 189 215 165 104 48 43 93 113 102 95 90 89 87 82 78 73 68 63 57
324 331 336 343 345 343 332 326 326 325 332 342 359 56 79 76 76 79 83 91 109 122 124 119 94 75 80 95 95 81 51 355 341 41 354 171 160 152 140 110 120 143 147 158 178 178 171 178 193 225 229 222 199 200 250 245 208 197 200 237 252 228 229 219 105 184 181 164 177 194 212 92 107 70 54 78 99 96 89 86 85 83 79 76 71 65 58 51
331 336 344 355 356 351 336 334 336 335 346 31 74 94 99 92 88 87 84 88 94 104 111 105 98 93 83 87 73 34 4 19 52 54 37 105 170 154 139 137 158 149 135 131 152 159 165 193 194 191 222 212 213 198 207 226 216 200 195 216 244 247 252 227 152 177 171 165 181 193 205 135 112 99 70 79 95 93 88 88 84 80 77 72 68 62 56 50
336 340 354 1 2 357 345 347 346 347 41 98 104 107 109 100 90 80 75 90 86 79 90 59 35 82 100 88 67 63 72 61 55 41 30 87 117 128 145 152 159 169 172 158 164 171 169 189 197 206 227 202 210 215 220 248 289 360 349 290 260 244 255 231 123 157 163 172 200 202 208 168 128 124 99 93 97 96 92 89 83 78 74 69 67 63 57 53
340 347 1 1 3 359 353 1 358 7 112 129 122 119 117 107 101 74 57 71 76 70 74 68 62 82 91 75 84 101 79 62 55 26 28 108 107 102 147 157 164 195 221 173 154 181 177 177 217 210 219 217 215 216 227 255 287 332 346 324 306 297 323 57 100 160 176 183 205 208 222 178 135 132 119 107 103 98 97 93 85 81 75 70 68 63 58 54
348 356 3 3 5 0 1 15 22 83 135 148 137 140 221 236 160 121 79 69 74 76 75 75 74 74 71 55 92 115 100 80 61 22 28 105 102 126 167 173 173 206 236 203 126 146 180 204 237 224 229 236 229 223 225 239 264 297 315 327 309 296 341 64 107 142 98 76 210 214 224 168 124 121 108 100 93 82 87 94 90 86 79 71 67 63 60 53
355 360 5 7 5 5 14 21 52 95 130 160 160 191 242 190 140 130 113 86 70 69 68 67 66 63 61 65 90 106 125 109 60 24 26 115 71 192 163 177 210 207 198 204 116 103 217 238 244 247 249 248 259 326 285 249 257 282 288 279 283 279 287 66 78 130 98 91 245 260 239 134 109 102 89 82 81 73 76 84 85 84 78 70 65 61 59 54
359 1 6 8 3 13 32 32 60 82 98 150 177 236 197 151 140 130 119 107 75 62 73 76 68 58 54 60 70 72 59 45 35 18 17 53 24 356 253 199 243 232 138 192 205 168 200 226 270 308 348 338 335 354 344 332 313 287 276 265 265 273 263 259 306 316 325 60 94 313 319 128 112 91 79 79 91 89 83 83 81 81 79 74 69 63 59 55
3 360 4 8 5 21 48 54 60 70 80 106 135 144 143 145 145 137 119 112 100 76 84 81 69 54 47 55 57 63 65 53 32 9 11 19 25 18 290 302 278 242 176 211 233 253 268 37 2 358 29 18 354 334 306 298 307 253 232 243 246 257 289 73 136 73 3 351 68 1 325 199 171 152 119 101 107 103 95 89 81 79 81 76 70 64 60 55
1 354 357 3 8 28 59 67 55 60 73 92 118 139 146 151 153 145 125 120 112 104 100 78 65 42 34 51 60 72 84 59 36 16 14 15 13 9 328 333 325 275 237 217 215 263 294 28 2 352 36 28 20 320 276 207 258 258 226 251 249 239 198 98 130 113 21 287 204 163 269 262 176 158 143 131 130 114 100 92 82 78 75 71 67 61 58 56
355 349 351 356 7 33 57 55 41 48 64 81 115 149 159 164 164 150 87 183 117 111 148 67 53 24 21 30 19 13 140 66 36 31 26 16 13 359 348 327 191 20 307 251 167 236 345 47 25 17 37 22 22 273 330 349 243 249 305 326 308 242 187 135 151 161 199 256 214 176 214 272 172 135 129 135 129 111 101 89 82 79 72 69 66 62 59 56
350 345 346 351 4 28 58 51 19 58 76 65 96 151 169 175 180 180 334 212 174 51 88 49 45 45 36 23 8 323 159 77 55 37 26 21 29 345 337 32 177 42 358 334 61 358 354 36 39 40 78 66 261 249 360 355 277 221 336 346 8 355 286 142 174 202 240 294 320 204 217 264 251 136 132 136 123 118 112 95 87 82 78 75 70 65 61 57
346 343 343 348 5 35 74 95 266 122 93 54 65 137 168 178 190 211 300 222 240 24 56 55 67 62 59 44 43 62 69 40 65 23 15 18 29 353 263 28 11 9 18 359 102 327 2 32 19 2 37 158 345 324 355 352 327 85 351 344 13 19 10 10 250 221 274 284 264 225 211 253 254 133 137 145 136 155 133 111 103 90 83 81 74 68 63 59
340 342 343 342 359 78 104 99 144 151 82 61 54 120 156 155 160 172 277 246 103 82 56 53 95 33 17 49 47 46 44 35 24 9 12 23 32 28 162 20 359 348 10 49 106 61 58 46 18 11 22 13 342 322 328 353 341 23 354 343 350 5 13 6 304 226 268 255 243 221 187 215 246 150 159 164 204 215 146 112 95 89 83 79 75 70 64 60
332 338 346 339 354 142 166 111 109 182 183 65 58 126 142 134 131 141 237 240 79 91 12 26 22 328 325 350 46 28 35 36 13 12 29 36 38 37 43 29 9 350 272 123 89 69 117 73 50 52 17 330 309 302 269 225 305 322 8 352 328 307 241 176 243 234 254 247 241 214 181 196 223 131 99 95 342 322 131 116 99 93 85 79 75 69 63 61
328 339 347 342 5 138 182 207 272 257 206 162 110 133 139 126 250 236 220 222 63 60 349 33 26 350 7 86 68 11 23 33 8 11 30 30 30 26 20 12 11 6 219 189 115 116 85 60 58 59 27 6 323 306 264 174 337 10 81 338 288 265 232 174 246 203 218 246 240 190 182 204 217 181 56 51 17 21 86 112 111 102 91 83 77 70 65 63
335 342 345 353 22 116 183 237 281 279 215 170 138 138 145 151 218 201 302 286 17 19 47 40 10 13 50 70 49 358 358 25 13 22 43 46 50 35 37 33 353 352 161 6 160 141 81 41 12 35 35 21 347 297 56 93 37 120 177 216 236 200 155 185 210 197 222 249 268 166 188 206 212 85 60 57 42 43 72 95 104 105 97 90 82 74 70 65
344 348 360 11 35 84 225 250 296 295 170 147 142 148 198 246 201 127 38 2 294 5 52 86 40 24 11 59 37 347 348 12 358 8 65 80 85 71 63 46 5 323 111 345 269 153 121 36 8 353 14 11 359 347 62 39 356 329 178 160 203 215 227 217 206 205 233 248 301 180 193 201 136 79 61 63 64 63 75 87 96 100 97 93 87 78 72 65
359 1 10 24 80 92 246 199 18 77 140 137 151 175 58 117 209 185 85 34 310 186 65 106 121 45 34 74 39 312 30 57 359 10 21 52 70 60 41 30 17 3 318 329 357 16 197 199 6 2 344 358 14 44 33 329 314 310 295 119 234 281 272 236 192 182 293 306 289 209 196 231 167 93 72 79 82 78 82 89 94 93 92 90 83 75 67 62
22 19 21 30 45 30 23 72 51 89 128 140 208 218 91 122 134 52 91 84 241 174 109 101 226 92 68 79 341 316 22 65 67 48 31 33 57 30 1 8 13 10 340 5 23 353 122 129 2 25 30 11 18 26 1 331 288 308 325 182 358 12 320 280 286 240 268 358 300 225 133 41 85 107 105 98 92 92 96 98 97 94 90 83 75 68 64 59
54 39 28 16 356 340 13 40 43 93 118 175 259 202 119 67 61 38 40 192 299 120 149 186 272 158 122 99 80 8 3 4 134 98 47 64 73 34 12 5 12 14 9 26 26 349 100 88 323 95 67 43 27 5 12 17 280 285 1 15 293 307 134 288 292 252 186 257 238 206 177 99 113 118 105 105 104 105 106 103 101 95 85 78 71 66 63 60
79 59 28 5 347 327 330 2 56 109 113 298 345 85 134 45 14 16 17 330 306 31 188 199 307 57 142 120 95 6 349 350 225 176 96 129 79 22 7 354 4 11 358 344 32 91 78 311 333 340 86 49 19 353 42 26 9 325 347 345 316 274 109 323 282 283 255 259 237 203 205 184 163 146 68 126 127 116 115 108 103 97 88 81 74 70 67 62
95 82 18 359 360 356 355 55 103 115 80 36 83 89 149 42 30 37 21 341 304 279 266 230 83 297 334 110 103 352 341 356 336 17 94 142 17 20 17 343 340 347 343 329 306 33 5 325 348 330 310 48 21 8 94 9 4 17 334 335 360 49 18 323 218 274 271 256 260 229 219 200 106 71 57 165 143 121 122 116 108 105 95 89 83 75 70 63
101 98 14 4 22 44 78 106 92 48 336 83 104 105 117 73 59 51 17 344 353 328 292 82 71 35 21 50 133 18 357 15 6 14 64 48 9 22 19 355 326 334 334 332 342 340 318 164 155 309 302 336 29 27 34 344 349 5 6 359 23 3 305 297 210 359 288 254 281 253 223 131 43 22 341 156 135 126 135 126 109 101 95 96 96 88 81 73
102 99 39 19 49 78 97 103 72 43 32 71 72 92 119 102 82 59 31 12 24 2 358 51 53 85 71 48 104 75 27 24 20 37 39 23 51 44 21 1 325 327 326 328 24 3 323 100 147 310 328 345 60 37 33 14 345 355 17 23 7 335 312 327 300 85 29 276 286 277 248 185 59 350 339 107 123 131 141 123 108 107 103 102 103 99 96 84
103 100 45 20 61 103 94 84 62 49 75 85 61 91 124 104 91 66 38 35 58 52 48 50 32 64 99 87 83 79 61 46 32 48 55 25 38 64 26 357 326 316 317 326 40 13 349 39 349 324 359 47 86 38 13 25 17 20 25 10 360 355 359 311 273 43 22 317 264 284 275 273 73 335 340 74 111 124 129 121 119 121 116 109 107 105 101 90
89 41 349 354 118 129 90 68 41 38 78 86 63 68 89 92 73 43 27 31 43 52 58 58 34 38 53 60 68 69 66 52 12 35 66 47 39 34 1 349 332 306 303 13 55 22 2 21 311 328 46 79 102 83 25 23 44 72 54 19 17 20 40 96 241 359 4 329 32 101 245 268 340 309 349 47 63 87 115 125 128 127 123 120 115 108 100 91
60 28 344 23 133 120 91 86 54 48 55 45 50 49 56 66 42 27 29 26 22 31 52 54 37 40 36 36 62 72 62 39 9 47 95 101 56 31 2 360 355 340 338 20 34 360 358 69 218 151 89 85 96 84 38 19 47 79 56 28 38 47 74 132 209 207 302 288 359 264 255 269 308 304 27 65 68 81 106 124 130 131 134 135 131 126 115 95
90 70 35 69 166 175 53 83 110 99 97 88 82 69 65 61 40 37 45 28 23 40 63 41 32 54 59 43 64 69 45 45 9 27 88 114 74 33 22 20 21 24 28 27 333 334 358 91 49 111 145 108 80 43 10 356 20 57 69 59 71 77 66 277 231 130 253 236 174 211 257 182 285 312 37 83 87 99 115 128 138 142 145 147 145 143 142 124
124 88 52 51 112 151 70 77 130 130 129 104 86 71 74 71 49 50 65 56 45 50 76 78 68 84 95 77 63 41 17 44 60 13 66 90 87 36 28 29 33 42 51 30 357 347 15 60 26 128 186 235 202 156 201 337 347 19 98 105 95 98 109 293 2 71 233 261 149 224 256 279 321 327 14 115 126 131 132 137 153 159 155 161 163 158 163 184
129 157 75 49 58 77 74 83 113 123 136 129 100 49 65 97 81 56 56 58 47 44 59 75 75 81 79 71 69 39 14 30 70 97 81 89 105 34 23 35 35 33 43 23 5 360 84 55 39 96 136 165 157 148 33 18 339 287 309 318 308 325 134 128 95 217 195 1 315 254 334 357 328 332 292 215 191 190 169 162 174 180 173 175 179 180 191 211
2 18 109 52 60 70 69 73 92 108 130 134 123 100 88 106 129 50 35 50 59 52 57 54 42 60 85 96 99 58 12 25 49 67 58 54 89 38 26 42 36 27 34 18 4 358 125 53 18 70 93 111 144 113 22 32 290 264 287 297 294 310 300 169 195 233 264 355 281 246 14 337 277 273 280 235 205 212 200 191 196 198 188 183 185 192 203 219
95 94 85 102 98 58 52 75 86 84 83 88 96 130 105 101 102 52 51 79 68 43 53 54 35 44 70 99 120 110 63 40 42 43 286 67 99 59 18 23 26 35 39 22 17 32 112 59 321 24 57 348 250 143 91 59 266 258 268 278 278 287 284 254 237 244 252 261 254 273 307 291 282 301 286 259 250 246 232 221 210 197 187 185 189 199 212 229
120 118 90 91 94 71 85 109 108 93 80 89 97 93 109 115 107 50 33 71 50 7 26 97 64 30 23 2 69 123 155 134 95 217 197 117 138 184 88 24 30 45 36 25 34 30 62 113 134 176 301 306 303 273 222 250 274 273 266 265 268 265 264 263 260 255 253 255 263 281 284 278 281 290 287 294 294 276 264 243 205 177 176 190 197 204 213 229
142 143 117 101 90 81 93 107 112 103 86 85 85 66 98 112 124 117 17 34 89 347 21 109 125 60 33 37 62 97 163 163 144 178 166 133 168 256 94 98 67 56 34 30 20 346 17 103 128 132 309 316 333 320 275 259 275 281 273 261 254 254 257 258 257 256 257 263 270 274 276 280 285 282 326 7 18 360 336 314 160 158 175 195 205 210 212 222
169 160 139 119 97 74 97 98 81 107 105 65 104 160 143 118 131 130 62 33 66 27 45 123 132 98 63 69 74 82 74 68 89 108 106 104 107 94 79 59 91 89 51 47 360 341 24 94 130 80 92 273 322 326 290 289 291 280 273 264 244 233 239 240 238 239 237 251 267 269 269 278 287 105 34 9 29 13 352 20 151 196 196 196 208 212 209 214
156 143 134 120 99 61 134 110 2 74 104 49 83 136 124 129 142 130 91 52 49 60 95 128 126 100 77 81 84 91 94 89 90 92 90 87 87 85 80 72 68 65 78 109 13 354 38 76 119 97 134 251 278 273 274 314 322 281 262 254 224 211 220 226 230 235 231 237 252 256 259 276 294 120 293 292 245 238 254 242 252 242 197 190 204 206 202 213
Height
1480 1478 1477 1475 1474 1473 1473 1471 1470 1469 1468 1466 1466 1465 1465 1464 1464 1464 1463 1463 1463 1462 1462 1462 1462 1462 1462 1463 1464 1464 1465 1466 1466 1467 1468 1469 1469 1470 1470 1470 1471 1472 1474 1475 1477 1479 1480 1481 1482 1483 1484 1484 1484 1485 1486 1486 1487 1488 1488 1489 1487 1484 1480 1475 1474 1477 1479 1479 1479 1479 1479 1480 1480 1480 1480 1480 1480 1481 1483 1484 1484 1484 1485 1485 1486 1486 1486 1487
1479 1478 1476 1475 1473 1472 1471 1470 1469 1468 1466 1465 1464 1464 1463 1463 1463 1463 1462 1462 1462 1461 1461 1461 1461 1462 1462 1463 1463 1464 1465 1465 1466 1468 1468 1468 1469 1469 1469 1470 1471 1472 1473 1475 1477 1478 1480 1481 1482 1483 1483 1484 1484 1484 1484 1484 1485 1486 1486 1487 1484 1480 1476 1472 1472 1475 1477 1479 1481 1481 1480 1480 1480 1481 1481 1482 1481 1481 1482 1483 1483 1484 1484 1485 1486 1486 1487 1487
1478 1477 1475 1474 1472 1471 1470 1469 1468 1467 1465 1464 1464 1463 1462 1462 1462 1461 1461 1461 1461 1461 1461 1461 1461 1461 1461 1462 1463 1464 1465 1465 1466 1467 1467 1467 1469 1469 1469 1470 1471 1472 1473 1475 1477 1479 1480 1481 1481 1482 1483 1483 1482 1483 1484 1483 1483 1484 1485 1485 1481 1476 1474 1471 1472 1474 1476 1478 1479 1480 1480 1480 1480 1481 1482 1482 1482 1481 1482 1484 1484 1484 1485 1485 1485 1486 1487 1488
1477 1476 1475 1473 1472 1470 1469 1467 1466 1465 1464 1463 1463 1462 1461 1461 1461 1461 1461 1461 1460 1460 1460 1460 1460 1461 1461 1462 1463 1463 1464 1465 1466 1466 1466 1467 1468 1469 1469 1470 1471 1472 1473 1474 1477 1478 1479 1480 1481 1481 1481 1481 1481 1482 1482 1482 1482 1481 1482 1482 1478 1475 1474 1472 1473 1475 1477 1479 1479 1479 1480 1481 1481 1481 1482 1482 1483 1483 1483 1485 1486 1485 1485 1485 1485 1486 1487 1488
1477 1475 1474 1472 1471 1469 1467 1466 1465 1464 1463 1462 1462 1461 1460 1460 1460 1460 1460 1460 1460 1459 1460 1460 1460 1460 1461 1462 1463 1463 1464 1465 1466 1465 1466 1467 1468 1468 1469 1469 1471 1472 1473 1474 1475 1477 1478 1479 1480 1480 1481 1480 1479 1480 1480 1479 1480 1479 1478 1478 1476 1475 1474 1473 1474 1476 1477 1479 1480 1480 1481 1482 1481 1481 1482 1482 1485 1487 1486 1486 1487 1487 1485 1485 1485 1486 1486 1486
1476 1474 1473 1471 1470 1468 1466 1465 1463 1462 1462 1461 1461 1460 1459 1459 1459 1459 1459 1459 1459 1459 1459 1459 1459 1460 1460 1461 1462 1463 1464 1465 1465 1465 1466 1466 1467 1468 1469 1470 1471 1471 1472 1473 1475 1477 1478 1479 1479 1480 1480 1479 1478 1477 1477 1477 1479 1480 1477 1475 1475 1475 1474 1474 1475 1477 1477 1478 1479 1480 1481 1481 1481 1481 1481 1482 1485 1487 1487 1485 1486 1487 1485 1484 1484 1485 1484 1485
1475 1473 1472 1470 1469 1467 1465 1463 1462 1462 1461 1460 1460 1459 1459 1459 1458 1458 1458 1458 1458 1458 1458 1459 1459 1459 1460 1461 1462 1463 1464 1465 1465 1466 1466 1466 1468 1469 1469 1470 1471 1471 1472 1473 1475 1476 1477 1478 1479 1479 1479 1479 1478 1476 1475 1475 1476 1479 1478 1474 1474 1474 1474 1474 1476 1477 1478 1479 1479 1479 1480 1480 1481 1481 1481 1482 1484 1485 1485 1484 1485 1485 1485 1483 1483 1484 1485 1486
1474 1472 1471 1469 1467 1466 1464 1462 1462 1461 1460 1459 1459 1459 1458 1458 1458 1457 1457 1457 1457 1457 1457 1458 1458 1459 1460 1460 1462 1463 1464 1465 1465 1466 1466 1467 1468 1469 1469 1470 1471 1471 1472 1473 1475 1476 1477 1478 1478 1478 1478 1478 1477 1475 1474 1474 1474 1476 1476 1474 1473 1473 1473 1474 1476 1478 1478 1479 1479 1479 1480 1480 1480 1481 1481 1482 1483 1484 1485 1484 1484 1485 1485 1484 1484 1485 1485 1486
1473 1471 1469 1468 1466 1465 1463 1461 1461 1460 1459 1459 1458 1458 1458 1457 1457 1457 1457 1456 1456 1456 1457 1457 1458 1459 1459 1460 1462 1463 1464 1465 1465 1466 1467 1467 1468 1468 1469 1470 1471 1471 1472 1474 1475 1476 1477 1477 1478 1478 1477 1476 1476 1474 1473 1474 1474 1473 1474 1473 1473 1472 1472 1474 1476 1477 1478 1478 1479 1479 1480 1480 1480 1481 1481 1482 1483 1484 1484 1485 1485 1485 1485 1485 1485 1486 1486 1486
1471 1470 1468 1466 1465 1463 1462 1460 1460 1459 1458 1458 1457 1457 1457 1457 1456 1456 1456 1456 1456 1456 1456 1456 1457 1458 1459 1460 1461 1463 1465 1465 1465 1466 1467 1467 1468 1468 1469 1470 1471 1471 1473 1474 1475 1476 1476 1477 1477 1477 1477 1476 1475 1474 1473 1474 1472 1471 1473 1472 1471 1471 1471 1473 1476 1477 1478 1478 1478 1479 1479 1479 1479 1481 1482 1481 1482 1483 1483 1485 1485 1484 1485 1486 1487 1487 1487 1487
1470 1469 1467 1465 1463 1462 1461 1460 1459 1458 1457 1457 1457 1457 1456 1456 1456 1455 1455 1455 1455 1455 1455 1456 1457 1457 1459 1460 1461 1463 1465 1465 1466 1466 1467 1468 1468 1469 1469 1470 1470 1471 1473 1474 1475 1475 1476 1477 1477 1477 1477 1476 1475 1474 1473 1473 1472 1472 1473 1472 1471 1471 1471 1472 1474 1475 1476 1477 1477 1477 1478 1478 1479 1481 1480 1480 1481 1482 1482 1484 1484 1484 1485 1487 1488 1488 1488 1488
1469 1467 1465 1464 1462 1461 1460 1459 1458 1457 1456 1456 1456 1456 1456 1456 1455 1455 1455 1455 1455 1455 1455 1455 1456 1457 1459 1461 1462 1464 1465 1465 1466 1466 1467 1467 1468 1468 1469 1469 1470 1471 1472 1474 1475 1475 1476 1476 1476 1476 1476 1476 1475 1475 1474 1473 1473 1473 1474 1475 1473 1471 1471 1470 1471 1473 1475 1476 1475 1476 1479 1479 1478 1478 1478 1479 1481 1480 1481 1484 1484 1485 1487 1488 1489 1489 1489 1489
1468 1466 1464 1463 1461 1460 1459 1458 1457 1456 1456 1456 1456 1455 1455 1455 1455 1455 1454 1455 1455 1454 1455 1455 1456 1457 1459 1462 1463 1464 1465 1465 1466 1466 1467 1467 1468 1468 1469 1470 1470 1470 1471 1472 1474 1474 1475 1475 1475 1476 1476 1476 1476 1476 1475 1474 1475 1475 1475 1476 1476 1474 1472 1468 1468 1471 1472 1473 1473 1477 1483 1480 1477 1478 1478 1479 1480 1479 1481 1484 1485 1487 1488 1490 1490 1490 1490 1490
1466 1464 1463 1461 1460 1459 1458 1457 1456 1456 1456 1456 1455 1455 1455 1455 1455 1454 1454 1455 1455 1454 1455 1455 1457 1458 1460 1462 1464 1464 1465 1465 1466 1467 1467 1467 1468 1469 1469 1469 1470 1471 1471 1472 1472 1473 1474 1474 1476 1476 1476 1476 1476 1476 1475 1474 1475 1476 1475 1476 1477 1478 1473 1465 1465 1467 1469 1471 1470 1476 1483 1480 1479 1480 1479 1480 1480 1479 1481 1484 1486 1488 1490 1491 1491 1491 1491 1491
1465 1463 1461 1460 1459 1458 1457 1457 1456 1456 1455 1455 1455 1455 1455 1455 1455 1455 1455 1455 1455 1455 1455 1456 1457 1458 1460 1463 1464 1465 1465 1466 1467 1467 1467 1467 1468 1469 1470 1470 1470 1471 1471 1472 1472 1473 1474 1475 1476 1476 1476 1476 1477 1477 1475 1475 1475 1474 1477 1478 1476 1478 1472 1463 1461 1462 1466 1469 1469 1476 1481 1479 1480 1482 1480 1480 1480 1479 1482 1485 1488 1489 1491 1493 1493 1493 1493 1493
1464 1462 1460 1459 1458 1457 1456 1456 1455 1455 1455 1455 1455 1454 1455 1455 1455 1455 1455 1455 1456 1456 1457 1458 1458 1459 1461 1464 1465 1465 1466 1466 1466 1467 1467 1468 1468 1469 1470 1470 1470 1470 1471 1472 1472 1473 1474 1475 1476 1476 1477 1477 1478 1479 1477 1476 1475 1473 1477 1476 1473 1476 1473 1465 1460 1460 1464 1468 1469 1473 1476 1477 1481 1482 1480 1480 1480 1480 1483 1486 1489 1490 1492 1493 1494 1494 1494 1494
1463 1461 1460 1459 1458 1457 1456 1455 1455 1455 1455 1454 1454 1455 1455 1455 1455 1456 1456 1456 1457 1457 1457 1458 1459 1460 1462 1464 1465 1466 1466 1466 1467 1467 1467 1468 1468 1469 1470 1470 1471 1471 1471 1472 1472 1473 1474 1475 1476 1476 1476 1477 1477 1479 1481 1480 1476 1473 1475 1475 1471 1470 1470 1468 1465 1462 1463 1467 1470 1472 1474 1478 1482 1482 1481 1481 1480 1482 1485 1488 1490 1492 1493 1494 1495 1495 1495 1495
1462 1460 1459 1459 1458 1457 1456 1455 1454 1454 1454 1454 1455 1455 1455 1456 1456 1456 1457 1457 1458 1458 1458 1459 1460 1461 1464 1466 1466 1467 1467 1467 1467 1467 1467 1468 1468 1468 1469 1470 1471 1472 1472 1472 1473 1473 1475 1475 1475 1476 1476 1477 1476 1477 1481 1477 1470 1470 1472 1474 1471 1467 1466 1466 1466 1463 1463 1467 1470 1472 1475 1479 1483 1482 1482 1482 1482 1484 1486 1490 1491 1493 1495 1495 1496 1496 1496 1496
1461 1460 1459 1459 1458 1457 1456 1455 1454 1454 1454 1454 1455 1456 1456 1456 1457 1458 1458 1458 1459 1460 1461 1462 1462 1462 1465 1467 1467 1467 1467 1468 1468 1468 1468 1468 1468 1469 1469 1470 1471 1472 1472 1472 1473 1473 1474 1475 1476 1478 1477 1476 1475 1474 1475 1469 1465 1468 1470 1471 1470 1467 1464 1463 1464 1463 1464 1468 1470 1471 1473 1477 1482 1483 1483 1484 1484 1485 1488 1490 1493 1494 1496 1496 1497 1497 1498 1497
1461 1460 1459 1458 1457 1457 1456 1455 1454 1454 1454 1455 1456 1456 1457 1456 1457 1459 1460 1459 1460 1462 1463 1464 1464 1465 1466 1467 1467 1467 1468 1469 1469 1469 1469 1469 1469 1469 1470 1471 1471 1472 1471 1471 1473 1473 1473 1476 1476 1476 1474 1472 1470 1470 1470 1467 1466 1468 1470 1471 1470 1467 1466 1466 1467 1465 1465 1469 1470 1470 1469 1473 1481 1483 1483 1485 1485 1486 1489 1491 1493 1495 1497 1498 1499 1499 1499 1499
1460 1460 1459 1458 1457 1457 1456 1455 1455 1454 1455 1455 1456 1456 1457 1456 1457 1460 1461 1462 1464 1464 1465 1465 1465 1466 1467 1467 1467 1468 1468 1469 1470 1469 1469 1469 1469 1470 1470 1470 1471 1472 1470 1469 1471 1471 1473 1476 1473 1470 1469 1467 1466 1466 1466 1467 1467 1469 1471 1473 1472 1469 1469 1469 1468 1467 1467 1469 1470 1468 1467 1472 1481 1484 1484 1486 1487 1489 1491 1492 1494 1496 1498 1499 1500 1500 1500 1501
1460 1460 1459 1458 1457 1457 1456 1456 1455 1455 1455 1455 1456 1456 1456 1456 1458 1460 1461 1464 1466 1466 1466 1467 1467 1467 1467 1468 1468 1468 1469 1469 1470 1470 1469 1470 1470 1470 1470 1470 1471 1470 1468 1468 1471 1473 1475 1475 1470 1467 1466 1464 1464 1464 1465 1467 1468 1471 1472 1473 1475 1471 1469 1471 1469 1468 1468 1470 1471 1468 1469 1477 1483 1485 1487 1489 1490 1493 1493 1494 1496 1497 1499 1500 1501 1501 1501 1501
1460 1460 1459 1458 1458 1457 1457 1456 1456 1455 1455 1455 1456 1455 1456 1457 1459 1460 1460 1463 1467 1468 1468 1468 1468 1469 1469 1469 1469 1469 1469 1470 1470 1470 1470 1470 1470 1471 1471 1470 1469 1468 1468 1469 1471 1473 1475 1472 1469 1467 1466 1465 1465 1465 1467 1469 1470 1473 1474 1475 1475 1471 1470 1472 1472 1471 1470 1471 1473 1471 1473 1481 1488 1488 1490 1492 1493 1495 1496 1496 1498 1498 1500 1501 1502 1503 1502 1502
1460 1460 1459 1459 1458 1458 1457 1457 1456 1456 1456 1456 1456 1456 1457 1458 1458 1460 1460 1461 1466 1468 1469 1469 1469 1469 1470 1470 1470 1470 1470 1471 1472 1472 1471 1471 1470 1471 1470 1470 1469 1468 1469 1470 1470 1471 1471 1470 1469 1468 1467 1467 1468 1469 1470 1472 1474 1474 1474 1475 1474 1471 1471 1472 1473 1474 1472 1472 1473 1474 1476 1479 1485 1488 1491 1494 1495 1496 1498 1498 1500 1501 1502 1503 1503 1504 1504 1504
1461 1460 1459 1459 1458 1458 1458 1457 1457 1457 1457 1457 1457 1457 1458 1459 1459 1460 1460 1460 1466 1469 1469 1469 1469 1470 1471 1471 1471 1471 1471 1473 1474 1474 1473 1472 1472 1472 1471 1470 1471 1470 1469 1469 1471 1472 1470 1470 1470 1470 1470 1469 1471 1473 1471 1473 1477 1475 1472 1473 1472 1471 1472 1474 1475 1475 1477 1477 1473 1475 1479 1475 1478 1487 1491 1494 1496 1496 1499 1500 1501 1503 1503 1505 1505 1505 1506 1505
1461 1460 1460 1459 1458 1458 1458 1458 1459 1458 1458 1458 1458 1458 1459 1460 1460 1460 1460 1458 1465 1470 1469 1470 1471 1471 1472 1472 1472 1471 1473 1475 1475 1475 1474 1473 1473 1473 1473 1471 1471 1472 1471 1469 1470 1471 1471 1472 1472 1472 1473 1473 1474 1474 1473 1474 1476 1476 1474 1473 1471 1469 1471 1474 1475 1477 1479 1477 1470 1472 1477 1473 1476 1488 1492 1494 1496 1497 1500 1502 1503 1505 1505 1506 1507 1507 1508 1507
1461 1460 1460 1459 1459 1458 1458 1459 1459 1459 1459 1459 1459 1459 1459 1460 1460 1461 1461 1458 1464 1470 1470 1470 1472 1473 1473 1473 1473 1472 1475 1476 1476 1475 1475 1474 1474 1474 1474 1473 1472 1473 1472 1470 1472 1475 1475 1473 1474 1474 1475 1476 1476 1477 1477 1477 1477 1477 1477 1474 1472 1471 1472 1473 1474 1477 1477 1474 1473 1471 1473 1473 1474 1486 1493 1493 1497 1499 1501 1504 1505 1506 1507 1508 1509 1509 1509 1510
1461 1460 1460 1459 1459 1458 1459 1459 1459 1459 1459 1459 1460 1459 1460 1461 1461 1461 1462 1462 1467 1471 1471 1472 1473 1473 1474 1474 1473 1473 1476 1476 1476 1477 1476 1475 1475 1474 1475 1475 1475 1474 1473 1474 1477 1479 1478 1478 1478 1477 1476 1477 1479 1480 1480 1479 1478 1479 1479 1476 1475 1474 1475 1474 1475 1478 1476 1477 1480 1472 1473 1478 1473 1484 1496 1493 1495 1500 1501 1505 1506 1507 1509 1509 1510 1511 1511 1511
1461 1460 1460 1459 1459 1459 1459 1459 1460 1460 1460 1460 1460 1459 1460 1461 1462 1462 1462 1464 1469 1473 1473 1473 1474 1474 1475 1476 1475 1476 1477 1476 1477 1478 1477 1476 1476 1475 1476 1477 1477 1475 1475 1476 1478 1480 1480 1481 1481 1480 1481 1482 1482 1483 1480 1480 1480 1479 1479 1477 1476 1476 1476 1477 1477 1478 1479 1483 1483 1472 1473 1479 1474 1484 1497 1494 1495 1497 1499 1506 1508 1508 1511 1511 1512 1513 1513 1513
1460 1460 1459 1459 1459 1459 1459 1460 1460 1460 1460 1460 1460 1460 1461 1461 1461 1462 1462 1465 1471 1475 1475 1474 1476 1477 1475 1476 1478 1479 1479 1479 1479 1479 1477 1477 1476 1476 1477 1477 1477 1477 1477 1476 1479 1481 1481 1482 1481 1482 1486 1485 1483 1481 1479 1480 1480 1478 1479 1479 1480 1479 1477 1479 1478 1479 1485 1485 1478 1469 1470 1476 1476 1484 1496 1499 1499 1496 1497 1506 1509 1510 1512 1512 1514 1514 1514 1514
1460 1459 1459 1459 1459 1459 1459 1459 1460 1460 1460 1460 1460 1460 1461 1462 1461 1460 1462 1468 1472 1475 1477 1478 1480 1479 1478 1478 1481 1483 1482 1481 1481 1480 1480 1480 1480 1480 1480 1481 1482 1479 1477 1478 1480 1482 1482 1483 1484 1486 1487 1484 1483 1481 1478 1480 1479 1479 1481 1481 1485 1482 1480 1485 1482 1483 1492 1484 1471 1466 1468 1472 1474 1484 1500 1506 1504 1499 1500 1506 1509 1511 1513 1514 1515 1515 1516 1516
1459 1459 1459 1459 1459 1459 1459 1459 1460 1460 1460 1460 1460 1460 1460 1461 1460 1460 1465 1471 1474 1477 1481 1482 1482 1482 1481 1482 1485 1488 1486 1484 1484 1483 1484 1486 1488 1492 1493 1496 1497 1486 1478 1480 1481 1482 1486 1488 1488 1487 1487 1486 1485 1482 1479 1480 1480 1481 1481 1483 1489 1487 1489 1496 1491 1489 1489 1477 1469 1467 1466 1470 1478 1495 1508 1509 1508 1506 1506 1508 1510 1512 1514 1515 1517 1516 1517 1517
1459 1459 1459 1458 1459 1459 1459 1460 1459 1459 1459 1460 1460 1460 1460 1458 1461 1468 1474 1475 1477 1482 1484 1483 1484 1484 1482 1483 1488 1491 1488 1488 1488 1485 1486 1488 1492 1498 1499 1502 1504 1496 1487 1485 1482 1482 1487 1491 1490 1489 1488 1489 1489 1486 1485 1486 1485 1484 1482 1484 1490 1489 1493 1494 1486 1485 1483 1474 1472 1469 1468 1471 1481 1503 1514 1509 1511 1512 1510 1512 1512 1514 1515 1516 1517 1517 1518 1518
1458 1458 1458 1458 1459 1459 1459 1460 1459 1459 1459 1459 1459 1460 1459 1458 1466 1478 1481 1481 1483 1483 1484 1484 1484 1484 1485 1487 1491 1492 1490 1490 1490 1488 1488 1490 1495 1502 1503 1503 1504 1503 1499 1492 1487 1487 1487 1490 1493 1494 1493 1492 1491 1492 1493 1493 1491 1487 1483 1485 1488 1488 1492 1488 1479 1485 1485 1478 1475 1471 1472 1475 1481 1503 1515 1511 1514 1514 1513 1516 1515 1516 1518 1517 1519 1519 1519 1519
1458 1458 1458 1459 1459 1459 1460 1459 1459 1459 1458 1459 1459 1458 1458 1462 1472 1479 1481 1485 1485 1482 1483 1485 1484 1484 1487 1490 1492 1492 1490 1491 1491 1493 1495 1498 1504 1509 1510 1509 1507 1507 1505 1497 1494 1492 1487 1492 1498 1496 1495 1495 1494 1494 1494 1493 1492 1488 1483 1485 1489 1491 1494 1490 1484 1488 1487 1485 1483 1474 1481 1495 1501 1511 1516 1513 1515 1516 1515 1517 1516 1518 1519 1518 1520 1520 1520 1521
1458 1458 1458 1459 1459 1459 1459 1459 1459 1459 1459 1460 1457 1457 1466 1475 1480 1482 1483 1485 1484 1482 1484 1485 1483 1483 1485 1490 1493 1491 1491 1491 1490 1494 1502 1507 1511 1514 1514 1513 1510 1511 1511 1504 1502 1498 1492 1496 1499 1497 1496 1496 1495 1495 1494 1494 1493 1489 1488 1489 1493 1494 1495 1493 1487 1483 1484 1490 1485 1470 1480 1504 1510 1510 1515 1514 1515 1517 1517 1517 1518 1519 1520 1520 1521 1521 1522 1522
1458 1459 1459 1459 1459 1458 1459 1459 1459 1459 1459 1459 1459 1467 1481 1487 1485 1485 1485 1485 1484 1485 1484 1481 1484 1485 1483 1487 1492 1492 1492 1493 1489 1492 1502 1508 1512 1517 1517 1516 1513 1513 1513 1511 1509 1506 1503 1501 1499 1498 1498 1496 1496 1497 1495 1496 1495 1494 1495 1494 1493 1492 1492 1494 1491 1486 1488 1488 1477 1463 1470 1489 1494 1499 1515 1518 1515 1517 1518 1518 1519 1520 1521 1522 1522 1523 1523 1523
1458 1459 1459 1460 1459 1459 1459 1458 1459 1459 1459 1461 1469 1480 1487 1488 1486 1486 1487 1486 1485 1486 1483 1480 1485 1489 1484 1484 1495 1499 1496 1493 1490 1492 1500 1506 1513 1519 1520 1518 1516 1513 1513 1512 1510 1509 1508 1504 1500 1499 1499 1496 1497 1497 1497 1499 1497 1498 1500 1496 1495 1497 1495 1494 1492 1493 1495 1486 1475 1464 1459 1476 1492 1502 1515 1516 1513 1517 1519 1518 1520 1520 1522 1523 1523 1525 1524 1524
1459 1459 1460 1460 1460 1459 1459 1459 1460 1459 1458 1463 1473 1482 1486 1488 1488 1488 1488 1487 1487 1486 1483 1481 1485 1490 1490 1491 1498 1504 1501 1496 1494 1496 1502 1508 1515 1521 1521 1521 1518 1514 1513 1512 1511 1512 1508 1505 1503 1501 1498 1496 1499 1503 1508 1510 1504 1500 1501 1500 1501 1503 1501 1499 1496 1498 1499 1489 1483 1471 1460 1483 1510 1510 1509 1511 1511 1516 1518 1518 1521 1521 1522 1524 1523 1525 1524 1524
1459 1459 1460 1461 1460 1460 1460 1460 1460 1461 1464 1470 1477 1483 1487 1488 1488 1489 1489 1488 1489 1488 1487 1485 1485 1490 1496 1499 1499 1502 1504 1503 1502 1503 1508 1513 1519 1522 1523 1523 1521 1517 1515 1511 1513 1515 1509 1505 1505 1502 1497 1500 1509 1516 1518 1519 1515 1509 1509 1511 1512 1508 1503 1504 1499 1497 1499 1493 1490 1482 1472 1495 1518 1513 1508 1510 1510 1515 1517 1518 1521 1522 1523 1524 1523 1525 1524 1524
1459 1459 1460 1461 1461 1461 1460 1461 1463 1467 1473 1480 1483 1486 1488 1487 1488 1490 1489 1489 1490 1490 1491 1491 1490 1491 1496 1499 1499 1501 1505 1507 1507 1510 1514 1518 1520 1523 1524 1525 1523 1520 1517 1514 1515 1518 1514 1512 1513 1508 1505 1512 1521 1522 1519 1520 1519 1517 1518 1519 1521 1517 1512 1509 1501 1502 1508 1504 1501 1499 1490 1501 1518 1515 1512 1511 1510 1514 1516 1517 1522 1522 1523 1524 1524 1525 1524 1524
1459 1460 1461 1461 1461 1461 1461 1465 1470 1472 1477 1483 1485 1487 1487 1488 1490 1491 1491 1491 1491 1491 1493 1495 1496 1497 1498 1499 1501 1503 1507 1512 1512 1513 1518 1522 1523 1525 1525 1524 1524 1522 1520 1518 1519 1520 1520 1520 1518 1514 1514 1519 1522 1521 1521 1522 1520 1520 1524 1524 1524 1524 1522 1520 1514 1518 1525 1515 1510 1512 1502 1507 1520 1517 1513 1513 1513 1515 1516 1518 1521 1522 1524 1525 1524 1525 1525 1524
1460 1461 1461 1461 1461 1461 1461 1468 1476 1480 1483 1487 1488 1488 1489 1490 1492 1493 1494 1494 1494 1494 1495 1498 1500 1501 1503 1504 1505 1506 1511 1516 1517 1516 1520 1524 1526 1527 1526 1524 1523 1521 1521 1522 1522 1521 1520 1520 1517 1514 1518 1523 1524 1522 1522 1522 1521 1523 1527 1527 1529 1530 1531 1532 1529 1532 1534 1520 1514 1514 1504 1508 1522 1519 1515 1516 1516 1517 1519 1519 1521 1522 1524 1524 1524 1525 1524 1524
1461 1461 1461 1461 1461 1461 1462 1467 1476 1484 1488 1488 1489 1490 1492 1494 1495 1496 1496 1497 1497 1497 1499 1502 1502 1502 1506 1507 1508 1510 1511 1514 1518 1519 1520 1523 1526 1528 1526 1525 1523 1522 1523 1525 1525 1523 1521 1520 1518 1514 1517 1522 1523 1523 1524 1524 1525 1528 1530 1531 1533 1532 1533 1534 1532 1534 1533 1520 1515 1515 1506 1511 1523 1519 1517 1519 1518 1519 1521 1521 1522 1523 1523 1524 1524 1524 1524 1524
1461 1462 1462 1462 1461 1461 1464 1467 1472 1481 1487 1489 1491 1493 1494 1496 1498 1498 1498 1499 1499 1499 1500 1504 1504 1504 1507 1508 1510 1513 1512 1512 1518 1520 1520 1523 1527 1528 1527 1526 1525 1524 1526 1526 1525 1525 1524 1523 1523 1519 1513 1512 1515 1523 1530 1532 1531 1531 1531 1532 1533 1532 1533 1533 1532 1534 1531 1522 1520 1517 1510 1517 1525 1521 1519 1521 1520 1521 1522 1522 1523 1523 1523 1524 1524 1524 1524 1524
1461 1461 1462 1463 1462 1463 1467 1470 1470 1476 1484 1486 1490 1495 1496 1498 1500 1500 1499 1500 1501 1501 1502 1505 1505 1505 1508 1509 1513 1517 1516 1514 1516 1519 1522 1525 1527 1529 1528 1527 1527 1526 1526 1526 1526 1526 1525 1527 1532 1530 1524 1523 1527 1533 1536 1536 1536 1535 1533 1533 1532 1532 1532 1534 1536 1537 1534 1532 1530 1523 1518 1522 1525 1523 1522 1521 1520 1521 1521 1522 1522 1522 1523 1523 1523 1523 1523 1523
1461 1463 1464 1465 1465 1466 1470 1473 1474 1477 1480 1482 1489 1496 1497 1498 1500 1500 1500 1502 1503 1503 1504 1507 1508 1507 1508 1510 1513 1518 1521 1519 1518 1521 1526 1528 1528 1530 1529 1528 1528 1527 1527 1527 1526 1526 1525 1529 1536 1537 1535 1537 1539 1539 1539 1539 1539 1538 1536 1535 1534 1532 1532 1535 1537 1535 1534 1536 1531 1523 1524 1527 1524 1523 1523 1521 1520 1520 1520 1520 1520 1520 1521 1521 1521 1522 1522 1522
1462 1465 1467 1467 1468 1471 1473 1476 1477 1479 1481 1483 1491 1497 1497 1498 1501 1501 1502 1503 1503 1504 1505 1508 1511 1511 1512 1512 1512 1517 1522 1521 1523 1527 1529 1528 1529 1530 1530 1530 1530 1528 1529 1528 1528 1529 1528 1530 1538 1539 1537 1539 1540 1539 1540 1540 1539 1538 1537 1536 1536 1535 1534 1535 1535 1533 1534 1535 1528 1523 1526 1526 1523 1523 1521 1519 1519 1518 1517 1517 1517 1518 1519 1520 1521 1521 1521 1522
1462 1465 1468 1468 1471 1475 1477 1478 1479 1481 1483 1485 1492 1497 1498 1500 1503 1504 1505 1504 1504 1506 1505 1507 1513 1516 1515 1514 1512 1516 1520 1518 1521 1528 1530 1528 1529 1529 1530 1531 1531 1530 1530 1529 1530 1531 1530 1533 1540 1540 1538 1538 1539 1538 1539 1540 1539 1538 1537 1536 1536 1536 1535 1535 1534 1532 1531 1530 1527 1525 1525 1522 1521 1521 1519 1517 1517 1516 1515 1515 1515 1517 1519 1520 1520 1521 1521 1521
1461 1463 1466 1468 1473 1478 1479 1479 1480 1482 1484 1486 1491 1497 1499 1500 1503 1506 1508 1506 1505 1507 1507 1509 1515 1517 1516 1514 1514 1518 1522 1519 1519 1524 1527 1527 1528 1529 1529 1531 1532 1531 1531 1532 1532 1531 1532 1534 1538 1540 1538 1539 1541 1541 1539 1539 1539 1538 1537 1536 1536 1536 1535 1535 1533 1532 1531 1529 1526 1526 1524 1521 1518 1518 1517 1516 1515 1515 1515 1515 1515 1517 1518 1519 1520 1521 1521 1521
1460 1462 1463 1465 1474 1480 1480 1481 1482 1481 1484 1487 1491 1497 1499 1501 1503 1506 1509 1511 1509 1508 1509 1511 1515 1517 1516 1517 1518 1521 1524 1522 1521 1523 1525 1526 1527 1528 1529 1531 1533 1532 1533 1535 1535 1533 1534 1535 1537 1539 1537 1538 1544 1544 1539 1539 1541 1540 1537 1533 1533 1535 1533 1531 1530 1528 1529 1528 1526 1526 1524 1520 1517 1516 1516 1516 1515 1516 1516 1516 1516 1517 1518 1519 1520 1520 1520 1520
1460 1462 1462 1464 1473 1481 1481 1481 1482 1481 1485 1490 1492 1496 1498 1500 1504 1504 1506 1511 1512 1511 1512 1513 1514 1516 1518 1521 1523 1524 1524 1523 1524 1525 1526 1527 1528 1529 1531 1531 1532 1533 1534 1536 1537 1537 1538 1537 1536 1537 1535 1537 1544 1545 1543 1542 1535 1528 1525 1524 1524 1528 1528 1526 1526 1524 1523 1524 1524 1523 1521 1517 1515 1516 1515 1515 1515 1515 1515 1516 1516 1516 1516 1517 1518 1519 1519 1519